Home   Weather   Upernavik   Past weeks

Flag for Greenland Past Weather in Upernavik, Greenland — Yesterday and Last 2 Weeks

Now
47 °F

Cool.


Feels Like: 39 °F
Forecast: 44 / 46 °F
Wind: 22 mph from Southeast

Location: Edderfugle Oeer

Current Time: Jul 26, 2017 at 1:00:13 pm

Latest Report: Jul 26, 2017 at 11:00 am


Visibility: N/A

Pressure: 29.87 "Hg

Humidity: 74%

Dew Point: 39 °F

Location of UpernavikLocation

Past Weather in Upernavik — Graph

°F

Upernavik Temperature Yesterday

Maximum temperature yesterday: 46 °F (at 11:00 pm)
Minimum temperature yesterday: 41 °F (at 2:00 am)
Average temperature yesterday: 43 °F

High & Low Weather Summary for the Past Weeks

 TemperatureHumidityPressure
High49 °F (Jul 26, 1:00 am)100% (Jul 12, 10:00 am)30.03 "Hg (Jul 12, 10:00 am)
Low35 °F (Jul 16, 7:00 am)46% (Jul 22, 1:00 pm)29.12 "Hg (Jul 19, 10:00 am)
Average41 °F85%29.62 "Hg
* Reported Jul 11 11:00 am — Jul 26 11:00 am, Upernavik. Weather by CustomWeather, © 2017

Note: Actual official high and low records may vary slightly from our data, if they occured in-between our weather recording intervals... More about our weather records

Advertising

Upernavik Weather History for the Previous 24 Hours

Scroll right to see more
 ConditionsComfort  
Time TempWeatherWind HumidityBarometerVisibility
11:00 am
Wed, Jul 26
47 °FCool.22 mph74%29.87 "HgN/A
10:00 am46 °FCool.25 mph75%29.84 "HgN/A
9:00 am46 °FCool.24 mph75%29.83 "HgN/A
8:00 am47 °FCool.28 mph72%29.81 "HgN/A
7:00 am46 °FCool.21 mph76%29.80 "HgN/A
5:00 am47 °FCool.17 mph69%29.75 "HgN/A
3:00 am47 °FCool.14 mph65%29.73 "HgN/A
2:00 am48 °FCool.12 mph61%29.73 "HgN/A
1:00 am49 °FCool.10 mph56%29.73 "HgN/A
12:00 am48 °FCool.8 mph58%29.73 "HgN/A
11:00 pm
Tue, Jul 25
46 °FCool.8 mph68%29.74 "HgN/A
10:00 pm45 °FCool.8 mph78%29.74 "HgN/A
9:00 pm46 °FCool.8 mph71%29.73 "HgN/A
8:00 pm44 °FQuite cool.9 mph82%29.73 "HgN/A
7:00 pm44 °FQuite cool.8 mph86%29.73 "HgN/A
6:00 pm44 °FQuite cool.9 mph82%29.73 "HgN/A
5:00 pm44 °FQuite cool.8 mph84%29.73 "HgN/A
4:00 pm43 °FQuite cool.9 mph86%29.74 "HgN/A
3:00 pm42 °FQuite cool.9 mph86%29.74 "HgN/A
2:00 pm43 °FQuite cool.10 mph85%29.75 "HgN/A
1:00 pm42 °FQuite cool.9 mph85%29.76 "HgN/A
Weather by CustomWeather, © 2017

See weather overviewHow to use our weather pages